Time,TemperatureF,DewpointF,PressureIn,WindDirection,WindDirectionDegrees,WindSpeedMPH,WindSpeedGustMPH,Humidity,HourlyPrecipIn,Conditions,Clouds,dailyrainin,SoftwareType,DateUTC
2013-03-24 00:03:00,30.4,30.4,29.93,NNW,333,9.0,14.0,100,0.00,RA,RA,0.00,WeatherDisplay:10.37,2013-03-24 05:03:00,
2013-03-24 00:09:00,30.4,30.4,29.93,NW,319,8.0,12.0,100,0.00,RA,RA,0.00,WeatherDisplay:10.37,2013-03-24 05:09:00,
2013-03-24 00:15:00,30.4,30.4,29.92,NNW,329,8.0,12.0,100,0.00,OVC,OVC,0.00,WeatherDisplay:10.37,2013-03-24 05:15:00,
2013-03-24 00:21:00,30.2,30.2,29.92,NW,310,10.0,14.0,100,0.00,OVC,OVC,0.00,WeatherDisplay:10.37,2013-03-24 05:21:00,
2013-03-24 00:27:00,30.2,30.2,29.93,NW,314,12.0,16.0,100,0.00,OVC,OVC,0.00,WeatherDisplay:10.37,2013-03-24 05:27:00,
2013-03-24 00:33:00,30.2,30.2,29.93,NW,311,8.0,15.0,100,0.00,OVC,OVC,0.00,WeatherDisplay:10.37,2013-03-24 05:33:00,
2013-03-24 00:39:00,30.2,30.2,29.94,NW,319,9.0,13.0,100,0.00,OVC,OVC,0.00,WeatherDisplay:10.37,2013-03-24 05:39:00,
2013-03-24 00:45:00,30.2,30.2,29.94,NNW,327,8.0,10.0,100,0.00,OVC,OVC,0.00,WeatherDisplay:10.37,2013-03-24 05:45:00,
2013-03-24 00:51:00,30.0,30.0,29.94,NW,323,13.0,16.0,100,0.00,OVC,OVC,0.00,WeatherDisplay:10.37,2013-03-24 05:51:00,
2013-03-24 00:57:00,29.8,29.8,29.94,NW,306,10.0,14.0,100,0.00,OVC,OVC,0.00,WeatherDisplay:10.37,2013-03-24 05:57:00,
2013-03-24 01:03:00,29.7,29.7,29.94,WNW,300,13.0,18.0,100,0.00,CLR,CLR,0.00,WeatherDisplay:10.37,2013-03-24 06:03:00,
2013-03-24 01:09:00,29.5,29.5,29.94,WNW,303,14.0,23.0,100,0.00,CLR,CLR,0.00,WeatherDisplay:10.37,2013-03-24 06:09:00,
2013-03-24 01:15:00,29.3,29.3,29.95,NW,312,9.0,16.0,100,0.00,CLR,CLR,0.00,WeatherDisplay:10.37,2013-03-24 06:15:00,
2013-03-24 01:21:00,29.3,29.3,29.95,NNW,329,13.0,16.0,100,0.00,CLR,CLR,0.00,WeatherDisplay:10.37,2013-03-24 06:21:00,
2013-03-24 01:27:00,29.3,29.3,29.95,NW,324,9.0,16.0,100,0.00,CLR,CLR,0.00,WeatherDisplay:10.37,2013-03-24 06:27:00,
2013-03-24 01:33:00,29.1,29.1,29.95,NW,319,10.0,14.0,100,0.00,CLR,CLR,0.00,WeatherDisplay:10.37,2013-03-24 06:33:00,
2013-03-24 01:39:00,29.1,29.1,29.95,NW,308,12.0,14.0,100,0.00,CLR,CLR,0.00,WeatherDisplay:10.37,2013-03-24 06:39:00,
2013-03-24 01:45:00,28.8,28.8,29.95,NW,310,15.0,21.0,100,0.00,CLR,CLR,0.00,WeatherDisplay:10.37,2013-03-24 06:45:00,
2013-03-24 01:51:00,28.8,28.8,29.95,NW,307,8.0,16.0,100,0.00,CLR,CLR,0.00,WeatherDisplay:10.37,2013-03-24 06:51:00,
2013-03-24 01:57:00,28.6,28.6,29.95,NW,308,12.0,14.0,100,0.00,CLR,CLR,0.00,WeatherDisplay:10.37,2013-03-24 06:57:00,
2013-03-24 02:03:00,28.6,28.6,29.94,WNW,287,13.0,20.0,100,0.00, +SN, +SN,0.00,WeatherDisplay:10.37,2013-03-24 07:03:00,
2013-03-24 02:09:00,28.6,28.6,29.94,WNW,300,13.0,17.0,100,0.00, +SN, +SN,0.00,WeatherDisplay:10.37,2013-03-24 07:09:00,
2013-03-24 02:15:00,28.6,28.6,29.94,NNW,339,10.0,17.0,100,0.00, +SN, +SN,0.00,WeatherDisplay:10.37,2013-03-24 07:15:00,
2013-03-24 02:21:00,28.6,28.6,29.94,NNW,328,8.0,13.0,100,0.00, +SN, +SN,0.00,WeatherDisplay:10.37,2013-03-24 07:21:00,
2013-03-24 02:27:00,28.6,28.6,29.94,NW,321,9.0,14.0,100,0.00, +SN, +SN,0.00,WeatherDisplay:10.37,2013-03-24 07:27:00,
2013-03-24 02:33:00,28.6,28.6,29.94,NW,323,12.0,16.0,100,0.00, +SN, +SN,0.00,WeatherDisplay:10.37,2013-03-24 07:33:00,
2013-03-24 02:39:00,28.4,28.4,29.94,NW,314,9.0,19.0,100,0.00, +SN, +SN,0.00,WeatherDisplay:10.37,2013-03-24 07:39:00,
2013-03-24 02:45:00,28.2,28.2,29.94,NNW,335,13.0,17.0,100,0.00, +SN, +SN,0.00,WeatherDisplay:10.37,2013-03-24 07:45:00,
2013-03-24 02:51:00,28.2,28.2,29.94,NNW,346,9.0,15.0,100,0.00, +SN, +SN,0.00,WeatherDisplay:10.37,2013-03-24 07:51:00,
2013-03-24 02:57:00,28.2,28.2,29.94,NW,326,7.0,12.0,100,0.00, +SN, +SN,0.00,WeatherDisplay:10.37,2013-03-24 07:57:00,
2013-03-24 03:03:00,28.2,28.2,29.94,NNW,337,8.0,15.0,100,0.00, +SN, +SN,0.00,WeatherDisplay:10.37,2013-03-24 08:03:00,
2013-03-24 03:09:00,28.2,28.2,29.94,NNW,330,8.0,12.0,100,0.00, +SN, +SN,0.00,WeatherDisplay:10.37,2013-03-24 08:09:00,
2013-03-24 03:15:00,28.2,28.2,29.94,NNW,327,10.0,16.0,100,0.00, +SN, +SN,0.00,WeatherDisplay:10.37,2013-03-24 08:15:00,
2013-03-24 03:21:00,28.2,28.2,29.94,NNW,330,13.0,18.0,100,0.00, +SN, +SN,0.00,WeatherDisplay:10.37,2013-03-24 08:21:00,
2013-03-24 03:27:00,28.0,28.0,29.95,WNW,301,13.0,18.0,100,0.00, +SN, +SN,0.00,WeatherDisplay:10.37,2013-03-24 08:27:00,
2013-03-24 03:33:00,28.0,28.0,29.95,NW,324,14.0,17.0,100,0.00, +SN, +SN,0.00,WeatherDisplay:10.37,2013-03-24 08:33:00,
2013-03-24 03:39:00,27.9,27.9,29.94,WNW,303,13.0,17.0,100,0.00, +SN, +SN,0.00,WeatherDisplay:10.37,2013-03-24 08:39:00,
2013-03-24 03:45:00,27.7,27.7,29.94,NW,311,12.0,15.0,100,0.00, +SN, +SN,0.00,WeatherDisplay:10.37,2013-03-24 08:45:00,
2013-03-24 03:51:00,27.7,27.7,29.94,WNW,298,16.0,16.0,100,0.00, +SN, +SN,0.00,WeatherDisplay:10.37,2013-03-24 08:51:00,
2013-03-24 03:57:00,27.7,27.7,29.94,NW,311,12.0,16.0,100,0.00, +SN, +SN,0.00,WeatherDisplay:10.37,2013-03-24 08:57:00,
2013-03-24 04:03:00,27.7,27.7,29.94,NNW,329,9.0,16.0,100,0.00,OVC,OVC,0.00,WeatherDisplay:10.37,2013-03-24 09:03:00,
2013-03-24 04:09:00,27.7,27.7,29.94,NW,323,10.0,17.0,100,0.00,OVC,OVC,0.00,WeatherDisplay:10.37,2013-03-24 09:09:00,
2013-03-24 04:15:00,27.7,27.7,29.95,NNW,335,12.0,14.0,100,0.00,OVC,OVC,0.00,WeatherDisplay:10.37,2013-03-24 09:15:00,
2013-03-24 04:21:00,27.7,27.7,29.95,NNW,333,9.0,13.0,100,0.00,OVC,OVC,0.00,WeatherDisplay:10.37,2013-03-24 09:21:00,
2013-03-24 04:27:00,27.7,27.7,29.95,North,6,15.0,28.0,100,0.00,OVC,OVC,0.00,WeatherDisplay:10.37,2013-03-24 09:27:00,
2013-03-24 04:33:00,27.7,27.7,29.95,North,7,10.0,15.0,100,0.00,OVC,OVC,0.00,WeatherDisplay:10.37,2013-03-24 09:33:00,
2013-03-24 04:39:00,27.7,27.7,29.95,NNW,328,8.0,10.0,100,0.00,OVC,OVC,0.00,WeatherDisplay:10.37,2013-03-24 09:39:00,
2013-03-24 04:45:00,27.7,27.7,29.95,NNW,329,9.0,15.0,100,0.00,OVC,OVC,0.00,WeatherDisplay:10.37,2013-03-24 09:45:00,
2013-03-24 04:51:00,27.8,27.8,29.96,NW,320,7.0,12.0,100,0.00,OVC,OVC,0.00,WeatherDisplay:10.37,2013-03-24 09:51:00,
2013-03-24 04:57:00,27.9,27.9,29.96,WNW,296,8.0,13.0,100,0.00,OVC,OVC,0.00,WeatherDisplay:10.37,2013-03-24 09:57:00,
2013-03-24 05:03:00,27.5,27.5,29.96,NNW,330,12.0,14.0,100,0.00,CLR,CLR,0.00,WeatherDisplay:10.37,2013-03-24 10:03:00,
2013-03-24 05:09:00,27.2,27.2,29.96,NW,317,10.0,21.0,100,0.00,CLR,CLR,0.00,WeatherDisplay:10.37,2013-03-24 10:09:00,
2013-03-24 05:15:00,26.8,26.8,29.96,WNW,300,12.0,20.0,100,0.00,CLR,CLR,0.00,WeatherDisplay:10.37,2013-03-24 10:15:00,
2013-03-24 05:21:00,26.8,26.8,29.96,NW,305,12.0,18.0,100,0.00,CLR,CLR,0.00,WeatherDisplay:10.37,2013-03-24 10:21:00,
2013-03-24 05:27:00,26.8,26.8,29.97,NNW,331,9.0,16.0,100,0.00,CLR,CLR,0.00,WeatherDisplay:10.37,2013-03-24 10:27:00,
2013-03-24 05:33:00,26.6,26.6,29.97,NW,315,8.0,17.0,100,0.00,CLR,CLR,0.00,WeatherDisplay:10.37,2013-03-24 10:33:00,
2013-03-24 05:39:00,26.4,26.4,29.97,NW,320,13.0,17.0,100,0.00,CLR,CLR,0.00,WeatherDisplay:10.37,2013-03-24 10:39:00,
2013-03-24 05:45:00,26.2,26.2,29.97,WNW,301,14.0,21.0,100,0.00,CLR,CLR,0.00,WeatherDisplay:10.37,2013-03-24 10:45:00,
2013-03-24 05:51:00,26.2,26.2,29.98,NW,311,14.0,20.0,100,0.00,CLR,CLR,0.00,WeatherDisplay:10.37,2013-03-24 10:51:00,
2013-03-24 05:57:00,26.1,26.1,29.98,NW,325,12.0,14.0,100,0.00,CLR,CLR,0.00,WeatherDisplay:10.37,2013-03-24 10:57:00,
2013-03-24 06:03:00,26.1,26.1,29.99,NW,318,13.0,19.0,100,0.00,OVC,OVC,0.00,WeatherDisplay:10.37,2013-03-24 11:03:00,
2013-03-24 06:09:00,26.1,26.1,29.99,NNW,335,10.0,15.0,100,0.00,OVC,OVC,0.00,WeatherDisplay:10.37,2013-03-24 11:09:00,
2013-03-24 06:15:00,26.1,26.1,29.99,WNW,297,10.0,15.0,100,0.00,OVC,OVC,0.00,WeatherDisplay:10.37,2013-03-24 11:15:00,
2013-03-24 06:21:00,25.9,25.9,29.99,WNW,292,13.0,19.0,100,0.00,OVC,OVC,0.00,WeatherDisplay:10.37,2013-03-24 11:21:00,
2013-03-24 06:27:00,25.7,25.7,29.99,NW,318,13.0,23.0,100,0.00,OVC,OVC,0.00,WeatherDisplay:10.37,2013-03-24 11:27:00,
2013-03-24 06:33:00,25.7,25.7,29.99,NW,319,10.0,14.0,100,0.00,OVC,OVC,0.00,WeatherDisplay:10.37,2013-03-24 11:33:00,
2013-03-24 06:39:00,25.7,25.7,29.99,NW,323,15.0,28.0,100,0.00,OVC,OVC,0.00,WeatherDisplay:10.37,2013-03-24 11:39:00,
2013-03-24 06:45:00,25.5,25.5,29.99,WNW,301,13.0,20.0,100,0.00,OVC,OVC,0.00,WeatherDisplay:10.37,2013-03-24 11:45:00,
2013-03-24 06:51:00,25.2,25.2,29.99,NW,305,12.0,19.0,100,0.00,OVC,OVC,0.00,WeatherDisplay:10.37,2013-03-24 11:51:00,
2013-03-24 06:57:00,25.2,25.0,29.99,NW,320,14.0,23.0,99,0.00,OVC,OVC,0.00,WeatherDisplay:10.37,2013-03-24 11:57:00,
2013-03-24 07:03:00,25.0,24.8,30.00,WNW,298,14.0,19.0,99,0.00,-SN,-SN,0.00,WeatherDisplay:10.37,2013-03-24 12:03:00,
2013-03-24 07:09:00,24.6,24.4,30.00,NNW,339,13.0,23.0,99,0.00,-SN,-SN,0.00,WeatherDisplay:10.37,2013-03-24 12:09:00,
2013-03-24 07:15:00,24.4,24.2,30.00,NW,320,13.0,14.0,99,0.00,-SN,-SN,0.00,WeatherDisplay:10.37,2013-03-24 12:15:00,
2013-03-24 07:21:00,24.4,23.9,30.00,NNW,339,9.0,16.0,98,0.00,-SN,-SN,0.00,WeatherDisplay:10.37,2013-03-24 12:21:00,
2013-03-24 07:27:00,24.3,23.8,30.01,NW,322,12.0,19.0,98,0.00,-SN,-SN,0.00,WeatherDisplay:10.37,2013-03-24 12:27:00,
2013-03-24 07:33:00,23.9,23.4,30.01,WNW,295,14.0,19.0,98,0.00,-SN,-SN,0.00,WeatherDisplay:10.37,2013-03-24 12:33:00,
2013-03-24 07:39:00,23.7,23.2,30.02,NW,311,13.0,23.0,98,0.00,-SN,-SN,0.00,WeatherDisplay:10.37,2013-03-24 12:39:00,
2013-03-24 07:45:00,23.5,23.0,30.02,NNW,328,14.0,14.0,98,0.00,-SN,-SN,0.00,WeatherDisplay:10.37,2013-03-24 12:45:00,
2013-03-24 07:51:00,23.4,22.9,30.02,NNW,333,14.0,16.0,98,0.00,-SN,-SN,0.00,WeatherDisplay:10.37,2013-03-24 12:51:00,
2013-03-24 07:57:00,23.4,22.4,30.02,NNW,343,10.0,16.0,96,0.00,-SN,-SN,0.00,WeatherDisplay:10.37,2013-03-24 12:57:00,
2013-03-24 08:03:00,23.5,22.5,30.03,NW,316,8.0,14.0,96,0.00,BKN,BKN,0.00,WeatherDisplay:10.37,2013-03-24 13:03:00,
2013-03-24 08:09:00,23.5,23.0,30.03,WNW,298,8.0,17.0,98,0.00,BKN,BKN,0.00,WeatherDisplay:10.37,2013-03-24 13:09:00,
2013-03-24 08:15:00,23.5,23.0,30.04,NW,307,13.0,19.0,98,0.00,BKN,BKN,0.00,WeatherDisplay:10.37,2013-03-24 13:15:00,
2013-03-24 08:21:00,23.5,23.0,30.04,NNW,345,13.0,18.0,98,0.00,BKN,BKN,0.00,WeatherDisplay:10.37,2013-03-24 13:21:00,
2013-03-24 08:27:00,23.5,22.5,30.05,NW,320,14.0,26.0,96,0.00,BKN,BKN,0.00,WeatherDisplay:10.37,2013-03-24 13:27:00,
2013-03-24 08:33:00,23.5,22.5,30.05,NW,310,10.0,15.0,96,0.00,BKN,BKN,0.00,WeatherDisplay:10.37,2013-03-24 13:33:00,
2013-03-24 08:39:00,23.7,22.7,30.06,NW,307,8.0,17.0,96,0.00,BKN,BKN,0.00,WeatherDisplay:10.37,2013-03-24 13:39:00,
2013-03-24 08:45:00,23.7,22.7,30.06,NNW,338,16.0,23.0,96,0.00,BKN,BKN,0.00,WeatherDisplay:10.37,2013-03-24 13:45:00,
2013-03-24 08:51:00,23.9,22.9,30.06,NNW,327,12.0,19.0,96,0.00,BKN,BKN,0.00,WeatherDisplay:10.37,2013-03-24 13:51:00,
2013-03-24 08:57:00,24.3,23.3,30.06,NW,319,14.0,18.0,96,0.00,BKN,BKN,0.00,WeatherDisplay:10.37,2013-03-24 13:57:00,
2013-03-24 09:03:00,24.3,22.8,30.06,NW,322,12.0,15.0,94,0.00,SCT,SCT,0.00,WeatherDisplay:10.37,2013-03-24 14:03:00,
2013-03-24 09:09:00,24.6,23.1,30.06,WNW,296,10.0,16.0,94,0.00,SCT,SCT,0.00,WeatherDisplay:10.37,2013-03-24 14:09:00,
2013-03-24 09:15:00,24.8,23.3,30.07,NW,314,9.0,18.0,94,0.00,SCT,SCT,0.00,WeatherDisplay:10.37,2013-03-24 14:15:00,
2013-03-24 09:21:00,25.0,23.3,30.07,NW,315,14.0,23.0,93,0.00,SCT,SCT,0.00,WeatherDisplay:10.37,2013-03-24 14:21:00,
2013-03-24 09:27:00,25.2,23.2,30.08,NW,310,10.0,19.0,92,0.00,SCT,SCT,0.00,WeatherDisplay:10.37,2013-03-24 14:27:00,
2013-03-24 09:33:00,25.3,22.8,30.08,NW,305,13.0,16.0,90,0.00,SCT,SCT,0.00,WeatherDisplay:10.37,2013-03-24 14:33:00,
2013-03-24 09:39:00,25.5,23.2,30.07,WNW,295,9.0,19.0,91,0.00,SCT,SCT,0.00,WeatherDisplay:10.37,2013-03-24 14:39:00,
2013-03-24 09:45:00,25.7,22.9,30.07,WNW,299,12.0,20.0,89,0.00,SCT,SCT,0.00,WeatherDisplay:10.37,2013-03-24 14:45:00,
2013-03-24 09:51:00,25.7,22.4,30.08,WNW,302,13.0,19.0,87,0.00,SCT,SCT,0.00,WeatherDisplay:10.37,2013-03-24 14:51:00,
2013-03-24 09:57:00,25.9,22.6,30.08,WNW,298,13.0,17.0,87,0.00,SCT,SCT,0.00,WeatherDisplay:10.37,2013-03-24 14:57:00,
2013-03-24 10:03:00,26.1,22.5,30.08,NW,305,10.0,18.0,86,0.00,FEW,FEW,0.00,WeatherDisplay:10.37,2013-03-24 15:03:00,
2013-03-24 10:09:00,26.2,22.6,30.08,NW,304,13.0,19.0,86,0.00,FEW,FEW,0.00,WeatherDisplay:10.37,2013-03-24 15:09:00,
2013-03-24 10:15:00,26.6,23.0,30.09,NW,309,10.0,16.0,86,0.00,FEW,FEW,0.00,WeatherDisplay:10.37,2013-03-24 15:15:00,
2013-03-24 10:21:00,26.8,22.9,30.09,NW,313,14.0,19.0,85,0.00,FEW,FEW,0.00,WeatherDisplay:10.37,2013-03-24 15:21:00,
2013-03-24 10:27:00,26.9,23.0,30.09,NNW,327,14.0,21.0,85,0.00,FEW,FEW,0.00,WeatherDisplay:10.37,2013-03-24 15:27:00,
2013-03-24 10:33:00,27.0,22.5,30.09,WNW,302,9.0,21.0,83,0.00,FEW,FEW,0.00,WeatherDisplay:10.37,2013-03-24 15:33:00,
2013-03-24 10:39:00,27.0,22.2,30.11,WNW,295,13.0,16.0,82,0.00,FEW,FEW,0.00,WeatherDisplay:10.37,2013-03-24 15:39:00,
2013-03-24 10:45:00,27.6,22.5,30.11,WNW,303,9.0,17.0,81,0.00,FEW,FEW,0.00,WeatherDisplay:10.37,2013-03-24 15:45:00,
2013-03-24 10:51:00,27.3,22.2,30.11,WNW,303,16.0,23.0,81,0.00,FEW,FEW,0.00,WeatherDisplay:10.37,2013-03-24 15:51:00,
2013-03-24 10:57:00,27.5,22.2,30.11,NW,323,14.0,29.0,80,0.00,FEW,FEW,0.00,WeatherDisplay:10.37,2013-03-24 15:57:00,
2013-03-24 11:03:00,28.0,22.0,30.11,WNW,298,10.0,21.0,78,0.00,FEW,FEW,0.00,WeatherDisplay:10.37,2013-03-24 16:03:00,
2013-03-24 11:09:00,28.5,22.5,30.11,WNW,302,12.0,17.0,78,0.00,FEW,FEW,0.00,WeatherDisplay:10.37,2013-03-24 16:09:00,
2013-03-24 11:15:00,28.3,22.3,30.11,NW,326,12.0,18.0,78,0.00,FEW,FEW,0.00,WeatherDisplay:10.37,2013-03-24 16:15:00,
2013-03-24 11:21:00,28.2,21.6,30.11,NNW,338,15.0,23.0,76,0.00,FEW,FEW,0.00,WeatherDisplay:10.37,2013-03-24 16:21:00,
2013-03-24 11:27:00,28.9,21.9,30.11,NW,326,12.0,17.0,75,0.00,FEW,FEW,0.00,WeatherDisplay:10.37,2013-03-24 16:27:00,
2013-03-24 11:33:00,29.0,21.4,30.11,NW,324,12.0,18.0,73,0.00,FEW,FEW,0.00,WeatherDisplay:10.37,2013-03-24 16:33:00,
2013-03-24 11:39:00,29.7,22.1,30.10,NW,308,12.0,30.0,73,0.00,FEW,FEW,0.00,WeatherDisplay:10.37,2013-03-24 16:39:00,
2013-03-24 11:45:00,29.2,21.3,30.10,NW,308,10.0,26.0,72,0.00,FEW,FEW,0.00,WeatherDisplay:10.37,2013-03-24 16:45:00,
2013-03-24 11:51:00,29.2,21.9,30.12,NNW,327,12.0,19.0,74,0.00,FEW,FEW,0.00,WeatherDisplay:10.37,2013-03-24 16:51:00,
2013-03-24 11:57:00,29.3,20.7,30.12,NW,313,16.0,21.0,70,0.00,FEW,FEW,0.00,WeatherDisplay:10.37,2013-03-24 16:57:00,
2013-03-24 12:03:00,29.4,20.8,30.13,WNW,297,18.0,21.0,70,0.00,FEW,FEW,0.00,WeatherDisplay:10.37,2013-03-24 17:03:00,
2013-03-24 12:09:00,29.5,21.3,30.13,West,274,9.0,9.0,71,0.00,FEW,FEW,0.00,WeatherDisplay:10.37,2013-03-24 17:09:00,
2013-03-24 12:15:00,30.2,21.2,30.13,West,268,12.0,21.0,69,0.00,FEW,FEW,0.00,WeatherDisplay:10.37,2013-03-24 17:15:00,
2013-03-24 12:21:00,30.0,21.1,30.13,West,278,10.0,22.0,69,0.00,FEW,FEW,0.00,WeatherDisplay:10.37,2013-03-24 17:21:00,
2013-03-24 12:27:00,30.6,21.3,30.13,NNW,338,14.0,20.0,68,0.00,FEW,FEW,0.00,WeatherDisplay:10.37,2013-03-24 17:27:00,
2013-03-24 12:33:00,30.3,20.6,30.13,NW,317,14.0,18.0,67,0.00,FEW,FEW,0.00,WeatherDisplay:10.37,2013-03-24 17:33:00,
2013-03-24 12:39:00,31.2,21.5,30.14,WNW,298,15.0,20.0,67,0.00,FEW,FEW,0.00,WeatherDisplay:10.37,2013-03-24 17:39:00,
2013-03-24 12:45:00,30.7,20.7,30.14,NW,309,9.0,23.0,66,0.00,FEW,FEW,0.00,WeatherDisplay:10.37,2013-03-24 17:45:00,
2013-03-24 12:51:00,31.0,21.0,30.13,NNW,331,10.0,18.0,66,0.00,FEW,FEW,0.00,WeatherDisplay:10.37,2013-03-24 17:51:00,
2013-03-24 12:57:00,32.0,21.2,30.13,NW,325,8.0,17.0,64,0.00,FEW,FEW,0.00,WeatherDisplay:10.37,2013-03-24 17:57:00,
2013-03-24 13:03:00,31.8,21.4,30.13,NW,308,12.0,16.0,65,0.00,FEW,FEW,0.00,WeatherDisplay:10.37,2013-03-24 18:03:00,
2013-03-24 13:12:00,31.5,20.7,30.13,WNW,301,14.0,14.0,64,0.00,FEW,FEW,0.00,WeatherDisplay:10.37,2013-03-24 18:12:00,
2013-03-24 13:18:00,32.0,20.1,30.13,WNW,283,10.0,21.0,61,0.00,FEW,FEW,0.00,WeatherDisplay:10.37,2013-03-24 18:18:00,
2013-03-24 13:24:00,32.0,20.5,30.12,WNW,291,17.0,25.0,62,0.00,FEW,FEW,0.00,WeatherDisplay:10.37,2013-03-24 18:24:00,
2013-03-24 13:30:00,32.0,19.3,30.12,WNW,288,15.0,21.0,59,0.00,FEW,FEW,0.00,WeatherDisplay:10.37,2013-03-24 18:30:00,
2013-03-24 13:36:00,31.8,19.8,30.12,NW,305,20.0,23.0,61,0.00,FEW,FEW,0.00,WeatherDisplay:10.37,2013-03-24 18:36:00,
2013-03-24 13:42:00,32.0,19.3,30.12,WNW,301,17.0,24.0,59,0.00,FEW,FEW,0.00,WeatherDisplay:10.37,2013-03-24 18:42:00,
2013-03-24 13:48:00,32.4,20.8,30.12,WNW,289,12.0,21.0,62,0.00,FEW,FEW,0.00,WeatherDisplay:10.37,2013-03-24 18:48:00,
2013-03-24 13:54:00,31.8,19.9,30.12,WNW,301,20.0,28.0,61,0.00,FEW,FEW,0.00,WeatherDisplay:10.37,2013-03-24 18:54:00,
2013-03-24 14:00:00,32.6,20.6,30.12,NW,309,13.0,19.0,61,0.00,FEW,FEW,0.00,WeatherDisplay:10.37,2013-03-24 19:00:00,
2013-03-24 14:06:00,32.9,20.5,30.12,NW,311,14.0,26.0,60,0.00,FEW,FEW,0.00,WeatherDisplay:10.37,2013-03-24 19:06:00,
2013-03-24 14:12:00,32.4,20.0,30.12,WNW,289,14.0,14.0,60,0.00,FEW,FEW,0.00,WeatherDisplay:10.37,2013-03-24 19:12:00,
2013-03-24 14:18:00,32.6,20.3,30.12,WNW,286,14.0,23.0,60,0.00,FEW,FEW,0.00,WeatherDisplay:10.37,2013-03-24 19:18:00,
2013-03-24 14:24:00,32.4,20.8,30.12,WNW,302,9.0,9.0,62,0.00,FEW,FEW,0.00,WeatherDisplay:10.37,2013-03-24 19:24:00,
2013-03-24 14:30:00,32.9,20.5,30.12,WNW,288,17.0,21.0,60,0.00,FEW,FEW,0.00,WeatherDisplay:10.37,2013-03-24 19:30:00,
2013-03-24 14:36:00,33.1,19.9,30.12,WSW,242,14.0,20.0,58,0.00,FEW,FEW,0.00,WeatherDisplay:10.37,2013-03-24 19:36:00,
2013-03-24 14:42:00,33.4,20.2,30.12,NW,322,17.0,24.0,58,0.00,FEW,FEW,0.00,WeatherDisplay:10.37,2013-03-24 19:42:00,
2013-03-24 14:48:00,33.4,20.6,30.11,NW,304,17.0,25.0,59,0.00,FEW,FEW,0.00,WeatherDisplay:10.37,2013-03-24 19:48:00,
2013-03-24 14:54:00,33.0,20.6,30.11,WNW,297,18.0,22.0,60,0.01,RA,RA,0.01,WeatherDisplay:10.37,2013-03-24 19:54:00,
2013-03-24 15:00:00,33.5,21.9,30.11,WNW,297,10.0,16.0,62,0.00,RA,RA,0.02,WeatherDisplay:10.37,2013-03-24 20:00:00,
2013-03-24 15:06:00,33.8,21.0,30.11,NW,304,10.0,16.0,59,0.01,RA,RA,0.04,WeatherDisplay:10.37,2013-03-24 20:06:00,
2013-03-24 15:12:00,33.3,20.9,30.11,WNW,291,16.0,24.0,60,0.00,RA,RA,0.04,WeatherDisplay:10.37,2013-03-24 20:12:00,
2013-03-24 15:18:00,33.6,22.0,30.11,WNW,285,14.0,23.0,62,0.00,RA,RA,0.05,WeatherDisplay:10.37,2013-03-24 20:18:00,
2013-03-24 15:24:00,33.4,21.8,30.11,WNW,291,16.0,23.0,62,0.00,RA,RA,0.06,WeatherDisplay:10.37,2013-03-24 20:24:00,
2013-03-24 15:30:00,34.4,21.9,30.11,NW,308,13.0,16.0,60,0.00,CLR,CLR,0.06,WeatherDisplay:10.37,2013-03-24 20:30:00,
2013-03-24 15:36:00,34.2,21.8,30.11,NW,319,12.0,19.0,60,0.00,RA,RA,0.07,WeatherDisplay:10.37,2013-03-24 20:36:00,
2013-03-24 15:42:00,33.9,20.7,30.11,NNW,330,16.0,23.0,58,0.00,RA,RA,0.08,WeatherDisplay:10.37,2013-03-24 20:42:00,
2013-03-24 15:48:00,34.0,21.5,30.11,WNW,301,18.0,23.0,60,0.00,CLR,CLR,0.08,WeatherDisplay:10.37,2013-03-24 20:48:00,
2013-03-24 15:54:00,34.7,22.2,30.11,WNW,292,10.0,18.0,60,0.00,RA,RA,0.09,WeatherDisplay:10.37,2013-03-24 20:54:00,
2013-03-24 16:00:00,35.1,22.6,30.11,West,278,21.0,21.0,60,0.00,CLR,CLR,0.09,WeatherDisplay:10.37,2013-03-24 21:00:00,
2013-03-24 16:06:00,34.3,21.4,30.11,West,270,14.0,16.0,59,0.00,RA,RA,0.10,WeatherDisplay:10.37,2013-03-24 21:06:00,
2013-03-24 16:12:00,34.2,20.9,30.11,WNW,282,17.0,35.0,58,0.00,CLR,CLR,0.10,WeatherDisplay:10.37,2013-03-24 21:12:00,
2013-03-24 16:18:00,35.1,21.0,30.11,NW,317,13.0,18.0,56,0.00,RA,RA,0.11,WeatherDisplay:10.37,2013-03-24 21:18:00,
2013-03-24 16:24:00,34.7,21.4,30.11,NNW,340,12.0,16.0,58,0.01,RA,RA,0.12,WeatherDisplay:10.37,2013-03-24 21:24:00,
2013-03-24 16:30:00,34.7,21.5,30.11,NNW,329,12.0,21.0,58,0.00,RA,RA,0.12,WeatherDisplay:10.37,2013-03-24 21:30:00,
2013-03-24 16:36:00,34.9,21.2,30.11,WNW,300,14.0,21.0,57,0.00,CLR,CLR,0.12,WeatherDisplay:10.37,2013-03-24 21:36:00,
2013-03-24 16:42:00,35.1,21.8,30.11,NW,313,10.0,23.0,58,0.00,CLR,CLR,0.12,WeatherDisplay:10.37,2013-03-24 21:42:00,
2013-03-24 16:48:00,35.5,22.6,30.11,NW,311,13.0,22.0,59,0.01,RA,RA,0.13,WeatherDisplay:10.37,2013-03-24 21:48:00,
2013-03-24 16:54:00,35.6,21.4,30.11,NW,315,9.0,15.0,56,0.00,RA,RA,0.13,WeatherDisplay:10.37,2013-03-24 21:54:00,
2013-03-24 17:00:00,35.6,21.0,30.11,NW,307,10.0,20.0,55,0.00,CLR,CLR,0.13,WeatherDisplay:10.37,2013-03-24 22:00:00,
2013-03-24 17:06:00,35.7,21.9,30.11,NW,311,15.0,18.0,57,0.00,RA,RA,0.14,WeatherDisplay:10.37,2013-03-24 22:06:00,
2013-03-24 17:12:00,36.1,21.9,30.11,NW,315,10.0,15.0,56,0.00,CLR,CLR,0.14,WeatherDisplay:10.37,2013-03-24 22:12:00,
2013-03-24 17:18:00,35.7,21.5,30.11,NW,315,16.0,23.0,56,0.00,CLR,CLR,0.14,WeatherDisplay:10.37,2013-03-24 22:18:00,
2013-03-24 17:24:00,35.8,22.1,30.11,NW,308,13.0,16.0,57,0.00,CLR,CLR,0.14,WeatherDisplay:10.37,2013-03-24 22:24:00,
2013-03-24 17:30:00,35.4,21.7,30.11,NW,315,15.0,21.0,57,0.00,RA,RA,0.15,WeatherDisplay:10.37,2013-03-24 22:30:00,
2013-03-24 17:36:00,36.0,22.7,30.11,NW,315,12.0,16.0,58,0.00,CLR,CLR,0.15,WeatherDisplay:10.37,2013-03-24 22:36:00,
2013-03-24 17:42:00,36.4,22.6,30.11,NW,313,12.0,20.0,57,0.00,CLR,CLR,0.15,WeatherDisplay:10.37,2013-03-24 22:42:00,
2013-03-24 17:48:00,35.8,21.6,30.11,NW,306,14.0,21.0,56,0.00,RA,RA,0.16,WeatherDisplay:10.37,2013-03-24 22:48:00,
2013-03-24 17:54:00,35.8,22.8,30.11,WNW,299,12.0,22.0,59,0.00,CLR,CLR,0.16,WeatherDisplay:10.37,2013-03-24 22:54:00,
2013-03-24 18:00:00,35.5,22.2,30.11,NW,307,18.0,24.0,58,0.00,CLR,CLR,0.16,WeatherDisplay:10.37,2013-03-24 23:00:00,
2013-03-24 18:06:00,35.6,22.3,30.11,NW,314,15.0,21.0,58,0.00,CLR,CLR,0.16,WeatherDisplay:10.37,2013-03-24 23:06:00,
2013-03-24 18:12:00,35.9,21.7,30.11,WNW,302,15.0,17.0,56,0.00,CLR,CLR,0.16,WeatherDisplay:10.37,2013-03-24 23:12:00,
2013-03-24 18:18:00,36.0,22.3,30.11,WNW,297,15.0,18.0,57,0.00,CLR,CLR,0.16,WeatherDisplay:10.37,2013-03-24 23:18:00,
2013-03-24 18:24:00,36.6,22.4,30.11,NW,305,12.0,15.0,56,0.00,CLR,CLR,0.16,WeatherDisplay:10.37,2013-03-24 23:24:00,
2013-03-24 18:30:00,36.0,22.2,30.12,West,281,13.0,20.0,57,0.00,CLR,CLR,0.16,WeatherDisplay:10.37,2013-03-24 23:30:00,
2013-03-24 18:36:00,35.8,22.5,30.12,WNW,291,12.0,20.0,58,0.00,CLR,CLR,0.16,WeatherDisplay:10.37,2013-03-24 23:36:00,
2013-03-24 18:42:00,36.0,22.2,30.12,WNW,282,14.0,14.0,57,0.00,CLR,CLR,0.16,WeatherDisplay:10.37,2013-03-24 23:42:00,
2013-03-24 18:48:00,35.5,22.1,30.12,West,281,9.0,16.0,58,0.00,CLR,CLR,0.16,WeatherDisplay:10.37,2013-03-24 23:48:00,
2013-03-24 18:54:00,35.6,22.2,30.13,WNW,301,13.0,14.0,58,0.00,CLR,CLR,0.16,WeatherDisplay:10.37,2013-03-24 23:54:00,
2013-03-24 19:00:00,35.1,22.2,30.13,WNW,302,12.0,15.0,59,0.00,CLR,CLR,0.16,WeatherDisplay:10.37,2013-03-25 00:00:00,
2013-03-24 19:06:00,34.7,22.2,30.13,NW,304,10.0,19.0,60,0.00,CLR,CLR,0.16,WeatherDisplay:10.37,2013-03-25 00:06:00,
2013-03-24 19:12:00,34.2,22.5,30.13,NW,305,13.0,18.0,62,0.00,CLR,CLR,0.16,WeatherDisplay:10.37,2013-03-25 00:12:00,
2013-03-24 19:18:00,33.8,22.5,30.13,WNW,299,10.0,16.0,63,0.00,CLR,CLR,0.16,WeatherDisplay:10.37,2013-03-25 00:18:00,
2013-03-24 19:24:00,33.1,22.6,30.13,NW,304,14.0,18.0,65,0.00,CLR,CLR,0.16,WeatherDisplay:10.37,2013-03-25 00:24:00,
2013-03-24 19:30:00,32.7,22.2,30.13,NW,304,10.0,16.0,65,0.00,CLR,CLR,0.16,WeatherDisplay:10.37,2013-03-25 00:30:00,
2013-03-24 19:36:00,32.4,22.3,30.13,NW,305,8.0,12.0,66,0.00,CLR,CLR,0.16,WeatherDisplay:10.37,2013-03-25 00:36:00,
2013-03-24 19:42:00,32.0,22.3,30.14,NW,305,14.0,22.0,67,0.00,CLR,CLR,0.16,WeatherDisplay:10.37,2013-03-25 00:42:00,
2013-03-24 19:48:00,31.8,22.4,30.14,WNW,301,9.0,12.0,68,0.00,CLR,CLR,0.16,WeatherDisplay:10.37,2013-03-25 00:48:00,
2013-03-24 19:54:00,31.5,22.5,30.14,WNW,302,8.0,14.0,69,0.00,CLR,CLR,0.16,WeatherDisplay:10.37,2013-03-25 00:54:00,
2013-03-24 20:00:00,31.1,22.5,30.14,WNW,294,8.0,13.0,70,0.00,CLR,CLR,0.16,WeatherDisplay:10.37,2013-03-25 01:00:00,
2013-03-24 20:06:00,30.9,21.9,30.14,WNW,289,9.0,15.0,69,0.00,CLR,CLR,0.16,WeatherDisplay:10.37,2013-03-25 01:06:00,
2013-03-24 20:12:00,30.9,21.9,30.14,NW,305,10.0,10.0,69,0.00,CLR,CLR,0.16,WeatherDisplay:10.37,2013-03-25 01:12:00,
2013-03-24 20:18:00,30.4,22.1,30.15,NW,311,8.0,13.0,71,0.00,CLR,CLR,0.16,WeatherDisplay:10.37,2013-03-25 01:18:00,
2013-03-24 20:24:00,30.2,22.3,30.15,NW,311,10.0,14.0,72,0.00,CLR,CLR,0.16,WeatherDisplay:10.37,2013-03-25 01:24:00,
2013-03-24 20:30:00,30.2,22.3,30.15,NW,310,9.0,12.0,72,0.00,CLR,CLR,0.16,WeatherDisplay:10.37,2013-03-25 01:30:00,
2013-03-24 20:36:00,29.8,22.2,30.15,NW,311,6.0,8.0,73,0.00,CLR,CLR,0.16,WeatherDisplay:10.37,2013-03-25 01:36:00,
2013-03-24 20:42:00,29.5,22.6,30.15,NW,306,6.0,9.0,75,0.00,CLR,CLR,0.16,WeatherDisplay:10.37,2013-03-25 01:42:00,
2013-03-24 20:48:00,29.3,22.4,30.15,NW,325,7.0,7.0,75,0.00,CLR,CLR,0.16,WeatherDisplay:10.37,2013-03-25 01:48:00,
2013-03-24 20:54:00,29.2,22.3,30.15,NW,325,6.0,8.0,75,0.00,CLR,CLR,0.16,WeatherDisplay:10.37,2013-03-25 01:54:00,
2013-03-24 21:00:00,29.1,22.5,30.15,WNW,300,8.0,10.0,76,0.00,CLR,CLR,0.16,WeatherDisplay:10.37,2013-03-25 02:00:00,
2013-03-24 21:06:00,28.9,22.3,30.14,NW,310,8.0,8.0,76,0.00,CLR,CLR,0.16,WeatherDisplay:10.37,2013-03-25 02:06:00,
2013-03-24 21:12:00,28.8,22.5,30.14,NW,308,7.0,9.0,77,0.00,CLR,CLR,0.16,WeatherDisplay:10.37,2013-03-25 02:12:00,
2013-03-24 21:18:00,28.8,22.5,30.14,NW,314,7.0,10.0,77,0.00,CLR,CLR,0.16,WeatherDisplay:10.37,2013-03-25 02:18:00,
2013-03-24 21:24:00,28.6,22.6,30.14,NW,317,8.0,12.0,78,0.00,CLR,CLR,0.16,WeatherDisplay:10.37,2013-03-25 02:24:00,
2013-03-24 21:30:00,28.4,22.4,30.14,NW,308,7.0,10.0,78,0.00,CLR,CLR,0.16,WeatherDisplay:10.37,2013-03-25 02:30:00,
2013-03-24 21:36:00,28.4,22.4,30.14,NW,312,7.0,10.0,78,0.00,CLR,CLR,0.16,WeatherDisplay:10.37,2013-03-25 02:36:00,
2013-03-24 21:42:00,28.4,22.4,30.14,NW,313,7.0,10.0,78,0.00,CLR,CLR,0.16,WeatherDisplay:10.37,2013-03-25 02:42:00,
2013-03-24 21:48:00,28.6,22.6,30.14,NW,309,8.0,13.0,78,0.00,CLR,CLR,0.16,WeatherDisplay:10.37,2013-03-25 02:48:00,
2013-03-24 21:54:00,28.6,22.6,30.14,NW,311,7.0,9.0,78,0.00,CLR,CLR,0.16,WeatherDisplay:10.37,2013-03-25 02:54:00,
2013-03-24 22:00:00,28.4,22.4,30.14,NW,304,7.0,8.0,78,0.00,CLR,CLR,0.16,WeatherDisplay:10.37,2013-03-25 03:00:00,
2013-03-24 22:06:00,28.2,22.5,30.15,WNW,292,6.0,8.0,79,0.00,FEW,FEW,0.16,WeatherDisplay:10.37,2013-03-25 03:06:00,
2013-03-24 22:12:00,28.0,22.3,30.15,WNW,297,8.0,10.0,79,0.00,FEW,FEW,0.16,WeatherDisplay:10.37,2013-03-25 03:12:00,
2013-03-24 22:18:00,27.9,22.2,30.15,WNW,296,10.0,14.0,79,0.00,FEW,FEW,0.16,WeatherDisplay:10.37,2013-03-25 03:18:00,
2013-03-24 22:24:00,27.9,22.2,30.15,NW,307,10.0,14.0,79,0.00,FEW,FEW,0.16,WeatherDisplay:10.37,2013-03-25 03:24:00,
2013-03-24 22:30:00,27.9,22.5,30.15,WNW,298,6.0,12.0,80,0.00,FEW,FEW,0.16,WeatherDisplay:10.37,2013-03-25 03:30:00,
2013-03-24 22:36:00,28.0,22.6,30.15,WNW,300,7.0,9.0,80,0.00,FEW,FEW,0.16,WeatherDisplay:10.37,2013-03-25 03:36:00,
2013-03-24 22:42:00,28.2,22.5,30.15,NW,304,10.0,16.0,79,0.00,FEW,FEW,0.16,WeatherDisplay:10.37,2013-03-25 03:42:00,
2013-03-24 22:48:00,28.4,22.7,30.15,WNW,301,13.0,16.0,79,0.00,FEW,FEW,0.16,WeatherDisplay:10.37,2013-03-25 03:48:00,
2013-03-24 22:54:00,28.6,22.9,30.15,WNW,296,12.0,16.0,79,0.00,FEW,FEW,0.16,WeatherDisplay:10.37,2013-03-25 03:54:00,
2013-03-24 23:00:00,28.8,23.1,30.15,WNW,295,12.0,14.0,79,0.00,FEW,FEW,0.16,WeatherDisplay:10.37,2013-03-25 04:00:00,
2013-03-24 23:03:00,28.8,23.1,30.15,WNW,303,9.0,14.0,79,0.00,FEW,FEW,0.16,WeatherDisplay:10.37,2013-03-25 04:03:00,
2013-03-24 23:06:00,28.8,23.1,30.15,WNW,298,12.0,16.0,79,0.00,FEW,FEW,0.16,WeatherDisplay:10.37,2013-03-25 04:06:00,
2013-03-24 23:09:00,28.8,22.8,30.15,NW,305,9.0,13.0,78,0.00,FEW,FEW,0.16,WeatherDisplay:10.37,2013-03-25 04:09:00,
2013-03-24 23:15:00,28.8,22.8,30.15,NW,305,9.0,16.0,78,0.00,FEW,FEW,0.16,WeatherDisplay:10.37,2013-03-25 04:15:00,
2013-03-24 23:21:00,28.8,22.8,30.15,NW,309,9.0,14.0,78,0.00,FEW,FEW,0.16,WeatherDisplay:10.37,2013-03-25 04:21:00,
2013-03-24 23:27:00,28.8,22.8,30.15,WNW,299,10.0,13.0,78,0.00,FEW,FEW,0.16,WeatherDisplay:10.37,2013-03-25 04:27:00,
2013-03-24 23:33:00,28.9,22.9,30.15,NW,304,9.0,14.0,78,0.00,FEW,FEW,0.16,WeatherDisplay:10.37,2013-03-25 04:33:00,
2013-03-24 23:39:00,28.9,22.9,30.16,WNW,299,12.0,16.0,78,0.00,FEW,FEW,0.16,WeatherDisplay:10.37,2013-03-25 04:39:00,
2013-03-24 23:45:00,29.1,23.1,30.16,WNW,301,10.0,14.0,78,0.00,FEW,FEW,0.16,WeatherDisplay:10.37,2013-03-25 04:45:00,
2013-03-24 23:51:00,29.1,22.8,30.16,NW,304,9.0,16.0,77,0.00,FEW,FEW,0.16,WeatherDisplay:10.37,2013-03-25 04:51:00,
2013-03-24 23:57:00,28.9,22.6,30.16,WNW,303,8.0,12.0,77,0.00,FEW,FEW,0.16,WeatherDisplay:10.37,2013-03-25 04:57:00,